Home > Weather > Ternitz > Past weeks

Flag for Austria Past Weather in Ternitz, Lower Austria, Austria — Yesterday and Last 2 Weeks

Now
64 °F

Sunny.


Feels Like: 64 °F
Forecast: 54 / 70 °F
Wind: 3 mph from North

Location: Eisenstadt

Current Time: Jul 2, 2016 at 5:52:01 AM

Latest Report: Jul 2, 2016 at 5:00 AM


Visibility: 9 mi

Pressure: 29.96 "Hg

Humidity: 87%

Dew Point: 59 °F

Location of TernitzLocation

Past Weather in Ternitz — Graph

°F

Ternitz Temperature Yesterday

Maximum temperature yesterday: 83 °F (at 5:00 PM)
Minimum temperature yesterday: 67 °F (at 5:00 AM)
Average temperature yesterday: 75 °F

High & Low Weather Summary for the Past Weeks

 TemperatureHumidityPressure
High91 °F (Jun 24, 4:00 PM)94% (Jun 21, 6:00 AM)30.26 "Hg (Jun 21, 6:00 AM)
Low55 °F (Jun 21, 6:00 AM)34% (Jun 23, 5:00 PM)29.47 "Hg (Jun 17, 5:00 AM)
Average71 °F67%30.02 "Hg
* Reported Jun 17 4:00 AM — Jul 2 4:00 AM, Ternitz, Weather by CustomWeather, © 2016

Note: Actual official high and low records may vary slightly from our data, if they occured in-between our weather recording intervals... More about our weather records

Advertising

Ternitz Weather History for the Previous 24 Hours

Scroll right to see more
 ConditionsComfort  
Time TempWeatherWind HumidityBarometerVisibility
4:00 AM
Sat, Jul 2
65 °FMild.3 mph83%29.98 "HgN/A
3:00 AM66 °FMild.5 mph81%29.98 "HgN/A
2:00 AM66 °FClear.3 mph79%29.99 "Hg9 mi
1:00 AM67 °FMild.2 mph76%30.00 "HgN/A
12:00 AM69 °FMild.2 mph74%30.01 "HgN/A
11:00 PM
Fri, Jul 1
70 °FClear.2 mph71%30.01 "Hg12 mi
10:00 PM71 °FMild.2 mph72%30.01 "HgN/A
9:00 PM72 °FMild.3 mph72%30.00 "HgN/A
8:00 PM78 °FWarm.2 mph65%29.98 "HgN/A
7:00 PM83 °FScattered clouds.2 mph45%29.98 "Hg16 mi
6:00 PM83 °FWarm.3 mph42%29.98 "HgN/A
5:00 PM83 °FWarm.6 mph46%29.98 "HgN/A
4:00 PM83 °FWarm.1 mph45%30.00 "HgN/A
3:00 PM83 °FWarm.1 mph43%30.01 "HgN/A
2:00 PM82 °FWarm.3 mph43%30.01 "HgN/A
1:00 PM82 °FWarm.3 mph50%30.03 "HgN/A
12:00 PM80 °FWarm.2 mph53%30.04 "HgN/A
11:00 AM77 °FPartly sunny.3 mph59%30.05 "Hg16 mi
10:00 AM74 °FMild.2 mph63%30.05 "HgN/A
9:00 AM72 °FMild.1 mph65%30.04 "HgN/A
8:00 AM69 °FOvercast.1 mph72%30.03 "Hg16 mi
7:00 AM69 °FOvercast.1 mph73%30.03 "Hg16 mi
6:00 AM67 °FPartly sunny.1 mph76%30.02 "Hg12 mi
5:00 AM67 °FMild.1 mph75%30.01 "HgN/A
Weather by CustomWeather, © 2016

See weather overviewHow to use our weather pages